Change the Weather History Date:

Saturday, March 10, 2012

  Actual Average Record
Temperature  
Mean Temperature 27 °F -  
Max Temperature 35 °F 34 °F 64 °F (2008)
Min Temperature 19 °F 20 °F 8 °F (2003)
Degree Days  
Heating Degree Days 38    
Moisture  
Dew Point 15 °F    
Average Humidity 62    
Maximum Humidity 74    
Minimum Humidity 48    
Precipitation  
Precipitation 0.00 in - - ()
Sea Level Pressure  
Sea Level Pressure 30.49 in    
Wind  
Wind Speed 9 mph (SSE)    
Max Wind Speed 15 mph    
Max Gust Speed 21 mph    
Visibility 10 miles    
Events      
Averages and records for this station are not official NWS values.
T = Trace of Precipitation, MM = Missing Value Source: NWS Daily Summary

Daily Weather History Graph

Daily Weather History Graph

Search for Another Location

Airport or City:

Trip Planner

Search our weather history database for the weather conditions in past years. The results will help you decide how hot, cold, wet, or windy it might be!

Date:

Astronomy

Mar. 10, 2012 Rise Set
Actual Time 6:35 AM EST 6:16 PM EST
Civil Twilight 6:07 AM EST 6:45 PM EST
Nautical Twilight 5:34 AM EST 7:18 PM EST
Astronomical Twilight 5:01 AM EST 7:51 PM EST
Moon 9:34 PM EST (3/10) 7:24 AM EST (3/10)
Length of Visible Light 12h 37m
Length of Day
11h 40m
Waning Gibbous, 93% of the Moon is Illuminated
Mar 10
Waning Gibbous
Mar 14
Last Quarter
Mar 22
New
Mar 30
First Quarter
Apr 6
Full

Hourly Weather History & Observations

Time (EST) Temp. Windchill Dew Point Humidity Pressure Visibility Wind Dir Wind Speed Gust Speed Precip Events Conditions
12:53 AM 23.0 °F 10.1 °F 10.0 °F 58% 30.48 in 10.0 mi NW 15.0 mph 20.7 mph N/A   Partly Cloudy
1:53 AM 21.9 °F 9.2 °F 10.9 °F 63% 30.50 in 10.0 mi NW 13.8 mph - N/A   Mostly Cloudy
2:53 AM 21.9 °F 11.0 °F 12.9 °F 68% 30.52 in 10.0 mi NNW 10.4 mph - N/A   Overcast
3:53 AM 21.9 °F 11.7 °F 12.0 °F 66% 30.53 in 10.0 mi North 9.2 mph - N/A   Mostly Cloudy
4:53 AM 21.0 °F 13.4 °F 12.0 °F 68% 30.55 in 10.0 mi North 5.8 mph - N/A   Mostly Cloudy
5:53 AM 21.0 °F - 12.9 °F 71% 30.57 in 10.0 mi Calm Calm - N/A   Overcast
6:31 AM 19.4 °F 14.3 °F 12.2 °F 74% 30.52 in 10.0 mi NE 3.5 mph - N/A   Scattered Clouds
6:53 AM 19.0 °F 13.9 °F 12.0 °F 74% 30.59 in 10.0 mi East 3.5 mph - N/A   Clear
7:01 AM 19.4 °F 14.3 °F 12.2 °F 74% 30.53 in 10.0 mi East 3.5 mph - N/A   Scattered Clouds
7:53 AM 21.9 °F 14.5 °F 12.9 °F 68% 30.61 in 10.0 mi NNE 5.8 mph - N/A   Scattered Clouds
8:27 AM 21.2 °F - 12.2 °F 68% 30.56 in 10.0 mi Calm Calm - N/A   Mostly Cloudy
8:53 AM 23.0 °F 15.8 °F 12.9 °F 65% 30.63 in 10.0 mi NNW 5.8 mph - N/A   Mostly Cloudy
9:53 AM 24.1 °F 19.7 °F 14.0 °F 65% 30.63 in 10.0 mi SSW 3.5 mph - N/A   Mostly Cloudy
10:20 AM 24.8 °F 19.1 °F 12.2 °F 59% 30.56 in 10.0 mi SW 4.6 mph - N/A   Mostly Cloudy
10:53 AM 25.0 °F 16.3 °F 14.0 °F 63% 30.61 in 10.0 mi SSE 8.1 mph - N/A   Mostly Cloudy
11:53 AM 28.0 °F 20.0 °F 12.9 °F 53% 30.58 in 10.0 mi South 8.1 mph - N/A   Mostly Cloudy
12:53 PM 28.9 °F 21.9 °F 12.9 °F 51% 30.55 in 10.0 mi South 6.9 mph - N/A   Mostly Cloudy
1:53 PM 30.0 °F 20.0 °F 14.0 °F 51% 30.52 in 10.0 mi SW 12.7 mph - N/A   Mostly Cloudy
2:53 PM 32.0 °F 23.6 °F 16.0 °F 52% 30.49 in 10.0 mi South 10.4 mph - N/A   Overcast
3:53 PM 34.0 °F 27.2 °F 17.1 °F 50% 30.45 in 10.0 mi South 8.1 mph - N/A   Mostly Cloudy
4:53 PM 34.0 °F 27.2 °F 16.0 °F 48% 30.43 in 10.0 mi South 8.1 mph - N/A   Mostly Cloudy
5:53 PM 33.1 °F 24.9 °F 17.1 °F 52% 30.39 in 10.0 mi SSE 10.4 mph - N/A   Scattered Clouds
6:53 PM 30.9 °F 22.8 °F 18.0 °F 59% 30.35 in 10.0 mi SSE 9.2 mph - N/A   Scattered Clouds
7:53 PM 32.0 °F 23.0 °F 19.0 °F 59% 30.31 in 10.0 mi South 11.5 mph - N/A   Scattered Clouds
8:53 PM 35.1 °F 28.6 °F 19.9 °F 54% 30.30 in 10.0 mi South 8.1 mph - N/A   Partly Cloudy
9:53 PM 30.9 °F 26.2 °F 21.0 °F 67% 30.33 in 10.0 mi South 4.6 mph - N/A   Partly Cloudy
10:53 PM 28.0 °F 20.0 °F 19.9 °F 72% 30.34 in 10.0 mi ESE 8.1 mph - N/A   Clear
11:53 PM 33.1 °F - 21.9 °F 64% 30.32 in 10.0 mi North - - N/A   Clear